Weather in Pesyanoye

Russia / Kurgan Oblast     54°59′48″N   64°48′33″E
temp.,
°C
wind,
m/s
gust,
m/s
humid.,
%
clouds,
%
prec.,
mm/h
press.,
hPa
HPBL,
m
11 april, sun
sun1123:00+2s3696100 0.0 1039136
02:00+1s369797 0.0 1039151
05:000s359611 0.0 104085
08:000s3797100 0.0 1040187
11:00+2ssw4799100 0.0 1040243
14:00+5ssw5985100 0.0 1038336
17:00+5ssw4985100 0.0 1038298
20:00+2ssw4109349 0.0 1037160
12 april, mon
mon1223:00+1ssw4109067 0.0 1036161
02:00+1ssw4108743 0.0 1036159
05:00+1sw488674 0.0 1036131
08:00+3wsw378694 0.0 1036170
11:00+9w3478100 0.0 1036301
14:00+11nnw3483100 0.0 1036515
17:00+10nnw4692100 0.0 1036330
20:00+7nnw3492100 0.0 103776
13 april, tue
tue1323:00+6n3490100 0.0 103872
02:00+4nne3490100 0.0 103951
05:00+3nne33900 0.0 104033
08:00+5ne23840 0.0 1041120
11:00+9e22700 0.0 1041481
14:00+12sse11550 0.0 1040883
17:00+13ssw12500 0.0 1038949
20:00+9ssw11640 0.0 103810
14 april, wed
wed1423:00+8ssw33720 0.0 103722
02:00+5ssw35860 0.0 103688
05:00+4sw34845 0.0 103558
08:00+7sw35765 0.0 1034167
11:00+12sw455916 0.0 1033534
14:00+15sw45485 0.0 1031872
17:00+16wsw45525 0.0 1029902
20:00+12sw33685 0.0 102827
15 april, thu
thu1523:00+10wsw34725 0.0 102744
02:00+8wsw34735 0.0 102647
05:00+7wsw347436 0.0 102640
08:00+9wsw356955 0.0 1025147
11:00+14wsw345572 0.0 1024500
14:00+17wsw445058 0.0 1022961
17:00+18wsw344847 0.0 10201046
20:00+13wsw33635 0.0 102020